CW1923 Weather Reports


time (UTC)temp
C
wind
direction
speed
KPH
gust
KPH
rain 1hr
cm
rain 24hr
cm
rain mn
cm
humidity
%
barometer
mb
20260505181126 11 0 0.0 0.0 0.00 0.41 0.23 97 1008.9
20260505180610 11 0 0.0 0.0 0.00 0.46 0.23 98 1008.8
20260505180105 11 0 0.0 0.0 0.00 0.48 0.23 97 1008.9
20260505175604 11 0 0.0 0.0 0.00 0.51 0.23 98 1008.9
20260505175104 11 0 0.0 0.0 0.00 0.53 0.23 97 1008.8
20260505174603 11 0 0.0 0.0 0.00 0.56 0.23 98 1008.9
20260505174106 11 0 0.0 0.0 0.00 0.58 0.23 98 1008.9
20260505173605 11 0 0.0 3.2 0.00 0.61 0.23 97 1009.0
20260505173102 11 358 0.0 3.2 0.00 0.61 0.23 98 1008.9
20260505172604 11 358 0.0 0.0 0.00 0.64 0.23 98 1009.0
20260505172104 11 358 0.0 3.2 0.00 0.69 0.23 97 1009.0
20260505171604 11 358 0.0 6.4 0.00 0.71 0.23 98 1009.1
20260505171103 11 358 0.0 6.4 0.00 0.79 0.23 97 1009.1
20260505165604 11 5 0.0 0.0 0.00 1.02 0.23 98 1009.2
20260505164603 11 5 0.0 0.0 0.00 1.30 0.23 98 1009.2
20260505164104 11 5 0.0 6.4 0.00 1.37 0.23 98 1009.2
20260505163604 11 4 0.0 8.0 0.00 1.45 0.23 98 1009.1
20260505162059 11 76 0.0 6.4 0.00 1.50 0.23 98 1009.1
20260505161555 11 64 0.0 6.4 0.03 1.50 0.23 98 1009.2
20260505161043 11 53 3.2 8.0 0.03 1.50 0.23 98 1009.3
20260505153033 11 104 3.2 8.0 0.03 1.50 0.23 98 1009.3
20260505152532 11 106 0.0 6.4 0.03 1.50 0.23 98 1009.4
20260505152032 11 106 0.0 6.4 0.03 1.50 0.23 98 1009.5
20260505150532 11 116 0.0 6.4 0.00 1.47 0.20 98 1009.5
20260505140530 11 131 3.2 19.3 0.00 1.47 0.20 98 1009.8
20260505124502 10 101 0.0 8.0 0.00 1.47 0.20 98 1010.3
20260505124004 11 98 0.0 8.0 0.00 1.47 0.20 98 1010.3
20260505123506 10 112 0.0 6.4 0.00 1.47 0.20 98 1010.3
20260505123005 10 114 0.0 8.0 0.00 1.47 0.20 98 1010.3
20260505121950 11 120 0.0 6.4 0.00 1.47 0.20 98 1010.4
20260505121451 11 123 0.0 6.4 0.03 1.47 0.20 98 1010.4
20260505120949 11 123 0.0 6.4 0.03 1.47 0.20 98 1010.4
20260505115441 11 158 3.2 6.4 0.03 1.47 0.20 98 1010.3
20260505114935 11 88 3.2 8.0 0.03 1.47 0.20 99 1010.3
20260505114433 11 347 3.2 8.0 0.03 1.47 0.20 98 1010.4
20260505113934 11 337 0.0 6.4 0.03 1.47 0.20 98 1010.4
20260505113432 10 337 3.2 8.0 0.03 1.47 0.20 98 1010.4
20260505112931 10 337 3.2 8.0 0.03 1.47 0.20 98 1010.4
20260505112425 11 74 0.0 8.0 0.03 1.47 0.20 98 1010.5
20260505111925 11 116 0.0 6.4 0.03 1.47 0.20 99 1010.5
20260505111425 11 116 3.2 8.0 0.00 1.45 0.18 98 1010.5
20260505110923 11 116 3.2 11.3 0.00 1.45 0.18 98 1010.6
20260505110421 11 127 0.0 11.3 0.00 1.45 0.18 98 1010.6
20260505101905 10 75 3.2 6.4 0.00 1.45 0.18 98 1010.6
20260505101405 10 68 0.0 6.4 0.00 1.45 0.18 98 1010.6
20260505100906 10 73 0.0 6.4 0.00 1.45 0.18 98 1010.7
20260505100404 10 73 0.0 6.4 0.00 1.45 0.18 98 1010.6
20260505095905 10 73 0.0 6.4 0.00 1.45 0.18 98 1010.7
20260505095406 10 76 3.2 8.0 0.00 1.45 0.18 98 1010.6
20260505094403 10 85 3.2 19.3 0.00 1.45 0.18 98 1010.6
20260505093906 10 109 3.2 14.5 0.00 1.45 0.18 98 1010.6
20260505093404 10 95 3.2 14.5 0.00 1.45 0.18 98 1010.6
20260505092408 10 303 3.2 11.3 0.00 1.45 0.18 98 1010.7
20260505091904 10 193 3.2 11.3 0.00 1.45 0.18 98 1010.7
20260505090906 10 193 3.2 8.0 0.00 1.45 0.18 98 1010.7
20260505090405 10 94 3.2 11.3 0.00 1.45 0.18 98 1010.7
20260505085904 10 87 3.2 11.3 0.00 1.45 0.18 98 1010.8
20260505085404 10 66 0.0 6.4 0.00 1.45 0.18 98 1010.7
20260505084904 10 101 0.0 8.0 0.00 1.45 0.18 98 1010.8
20260505083856 10 61 3.2 8.0 0.00 1.45 0.18 98 1010.8
20260505083351 10 61 3.2 8.0 0.00 1.45 0.18 98 1010.8
20260505081839 10 47 3.2 11.3 0.00 1.45 0.18 98 1010.7
20260505081342 10 47 3.2 11.3 0.00 1.45 0.18 98 1010.8
20260505080840 10 49 3.2 8.0 0.00 1.45 0.18 98 1010.7
20260505075838 10 54 0.0 6.4 0.00 1.45 0.18 98 1010.7
20260505075337 10 35 3.2 8.0 0.00 1.45 0.18 98 1010.6
20260505074834 10 9 3.2 11.3 0.00 1.45 0.18 98 1010.7
20260505074333 10 14 3.2 11.3 0.00 1.45 0.18 98 1010.8
20260505073834 10 15 3.2 11.3 0.00 1.45 0.18 98 1010.7
20260505072334 10 341 0.0 8.0 0.00 1.45 0.18 98 1010.9
20260505071332 10 83 3.2 8.0 0.00 1.45 0.18 98 1010.7
20260505070831 10 94 3.2 8.0 0.00 1.45 0.18 98 1010.8
20260505070332 10 25 3.2 8.0 0.00 1.45 0.18 98 1010.8
20260505065832 10 85 3.2 6.4 0.00 1.45 0.18 98 1010.7
20260505065331 10 85 3.2 6.4 0.00 1.45 0.18 98 1010.7
20260505064831 10 11 3.2 6.4 0.00 1.45 0.18 98 1010.8
20260505064332 10 10 3.2 11.3 0.00 1.45 0.18 98 1010.8
20260505063831 10 7 6.4 11.3 0.00 1.45 0.18 98 1010.8
20260505063332 10 19 3.2 8.0 0.00 1.45 0.18 98 1010.9
20260505062834 11 39 3.2 11.3 0.00 1.45 0.18 98 1010.9
20260505062332 11 35 3.2 11.3 0.00 1.45 0.18 98 1010.9
20260505061833 11 66 3.2 8.0 0.00 1.45 0.18 98 1011.0
20260505060818 11 62 6.4 11.3 0.00 1.45 0.18 98 1011.1
20260505060323 11 6 3.2 11.3 0.00 1.45 0.18 98 1011.0
20260505055804 11 25 3.2 11.3 0.00 1.45 0.18 98 1011.1
20260505055305 11 40 3.2 11.3 0.00 1.45 0.18 98 1011.0
20260505054803 11 7 3.2 8.0 0.00 1.45 0.18 98 1010.9
20260505054303 11 3 3.2 8.0 0.00 1.45 0.18 98 1011.0
20260505053804 11 3 3.2 8.0 0.00 1.45 0.18 98 1010.9
20260505053304 11 3 3.2 8.0 0.00 1.45 0.18 98 1010.8
20260505052802 11 3 3.2 8.0 0.00 1.45 0.18 98 1010.8
20260505052306 11 1 3.2 6.4 0.00 1.45 0.18 98 1010.8
20260505051303 11 359 3.2 8.0 0.00 1.45 0.18 98 1010.7
20260505050804 11 356 3.2 8.0 0.00 1.45 0.18 98 1010.7
20260505050303 11 3 3.2 8.0 0.00 1.45 0.18 98 1010.7
20260505041304 11 14 3.2 6.4 0.00 1.45 0.18 98 1010.9
20260505040802 11 12 3.2 8.0 0.00 1.45 0.18 98 1010.9
20260505040308 11 10 0.0 8.0 0.00 1.45 0.18 98 1011.0
20260505035806 11 357 0.0 6.4 0.00 1.45 0.18 98 1010.9
20260505034802 11 355 3.2 11.3 0.00 1.45 0.18 98 1011.0
20260505034303 12 353 3.2 11.3 0.00 1.45 0.18 98 1010.9
20260505033803 12 346 3.2 8.0 0.00 1.45 0.18 98 1010.9
20260505033301 12 345 3.2 8.0 0.00 1.45 0.18 98 1010.9
20260505032803 12 345 3.2 11.3 0.00 1.45 0.18 98 1010.9
20260505032300 12 343 3.2 11.3 0.00 1.45 0.18 98 1010.9
20260505031302 12 51 0.0 6.4 0.00 1.45 0.18 98 1011.0
20260505030804 12 53 3.2 8.0 0.00 1.45 0.18 98 1010.9
20260505030303 12 52 3.2 8.0 0.00 1.45 0.18 98 1010.9
20260505025304 12 58 3.2 8.0 0.00 1.45 0.18 98 1010.9
20260505024802 12 59 3.2 8.0 0.00 1.45 0.18 98 1011.0
20260505024303 12 64 0.0 8.0 0.00 1.45 0.18 98 1011.0
20260505023804 12 62 3.2 11.3 0.00 1.45 0.18 98 1011.1
20260505023304 12 89 3.2 11.3 0.00 1.45 0.18 97 1011.1
20260505022803 12 183 0.0 8.0 0.00 1.45 0.18 98 1011.1
20260505022304 12 184 0.0 6.4 0.00 1.45 0.18 98 1011.1
20260505021802 12 184 0.0 3.2 0.00 1.45 0.18 98 1011.0
20260505021301 12 184 0.0 3.2 0.00 1.45 0.18 98 1011.0
20260505020803 12 184 3.2 11.3 0.00 1.45 0.18 98 1011.0
20260505020301 12 183 3.2 11.3 0.00 1.45 0.18 97 1011.1
20260505015801 12 182 3.2 11.3 0.00 1.45 0.18 97 1011.1
20260505015303 12 180 0.0 6.4 0.00 1.45 0.18 98 1011.1
20260505014805 12 181 0.0 8.0 0.00 1.45 0.18 98 1011.0
20260505014307 13 181 0.0 8.0 0.00 1.45 0.18 97 1011.1
20260505013802 13 301 0.0 0.0 0.00 1.45 0.18 98 1011.1
20260505013302 13 301 0.0 3.2 0.00 1.45 0.18 97 1011.0
20260505012802 13 301 0.0 6.4 0.00 1.45 0.18 97 1011.1
20260505011803 13 301 0.0 11.3 0.00 1.45 0.18 98 1011.0
20260505011303 13 289 0.0 6.4 0.00 1.45 0.18 98 1011.0
20260505010803 13 289 3.2 8.0 0.00 1.45 0.18 98 1011.1
20260505010302 13 289 3.2 8.0 0.00 1.45 0.18 97 1011.2
20260505005802 13 287 0.0 8.0 0.00 1.45 0.18 97 1011.2
20260505005301 13 308 0.0 8.0 0.00 1.45 0.18 97 1011.3
20260505004804 13 307 0.0 11.3 0.00 1.45 0.18 97 1011.3
20260505004303 13 307 0.0 11.3 0.00 1.45 0.18 97 1011.4
20260505003805 13 220 0.0 3.2 0.00 1.45 0.18 97 1011.3
20260505003303 13 220 0.0 8.0 0.00 1.45 0.18 97 1011.3
20260505002801 13 217 3.2 8.0 0.03 1.45 0.18 97 1011.3
20260505002256 13 208 0.0 8.0 0.03 1.45 0.18 97 1011.3
20260505001750 13 241 0.0 0.0 0.03 1.45 0.18 97 1011.4
20260505001246 13 241 0.0 0.0 0.03 1.45 0.18 97 1011.5
20260505000747 13 241 0.0 0.0 0.03 1.45 0.18 97 1011.5
20260505000247 13 241 0.0 0.0 0.05 1.45 0.18 97 1011.5
20260504235746 13 241 0.0 0.0 0.05 1.45 0.18 97 1011.6
20260504235238 13 241 0.0 0.0 0.05 1.45 0.18 97 1011.6
20260504234738 13 241 0.0 0.0 0.05 1.45 0.18 97 1011.6
20260504234235 13 241 0.0 0.0 0.08 1.45 0.18 97 1011.6
20260504233735 13 241 0.0 0.0 0.10 1.45 0.18 97 1011.5
20260504233235 13 241 0.0 0.0 0.10 1.45 0.18 97 1011.6
20260504232231 13 241 0.0 0.0 0.10 1.45 0.15 97 1011.6
20260504231730 13 241 0.0 0.0 0.13 1.45 0.15 97 1011.6
20260504231228 13 241 0.0 0.0 0.15 1.45 0.15 97 1011.7
20260504230732 13 241 0.0 0.0 0.15 1.45 0.15 97 1011.7
20260504230226 13 241 0.0 0.0 0.15 1.42 0.15 97 1011.8
20260504225730 13 241 0.0 0.0 0.15 1.42 0.15 97 1011.8
20260504225227 13 241 0.0 0.0 0.15 1.40 0.13 97 1011.9
20260504224220 13 241 0.0 0.0 0.13 1.37 0.10 97 1011.9
20260504223719 13 241 0.0 0.0 0.10 1.37 0.08 97 1011.9
20260504223213 13 241 0.0 0.0 0.10 1.37 0.08 97 1011.9
20260504222710 13 241 0.0 0.0 0.10 1.37 0.08 97 1012.0
20260504222210 13 241 0.0 0.0 0.10 1.35 0.05 97 1012.0
20260504221704 13 241 0.0 0.0 0.08 1.32 0.05 97 1012.2
20260504221201 13 241 0.0 0.0 0.05 1.30 0.03 97 1012.1
20260504220704 13 241 0.0 0.0 0.05 1.27 0.00 97 1012.2
20260504220202 13 241 0.0 0.0 0.05 1.27 0.00 97 1012.3
20260504215703 13 241 0.0 0.0 0.03 1.27 1.27 97 1012.4
20260504215204 13 241 0.0 0.0 0.03 1.27 1.27 97 1012.3
20260504214202 13 241 0.0 0.0 0.03 1.27 1.27 97 1012.4
20260504213205 13 241 0.0 0.0 0.03 1.27 1.27 96 1012.4
20260504212159 14 241 0.0 0.0 0.03 1.24 1.24 97 1012.6
20260504211650 14 241 0.0 0.0 0.03 1.24 1.24 96 1012.6
20260504211148 14 241 0.0 0.0 0.03 1.24 1.24 96 1012.5
20260504210134 14 241 0.0 0.0 0.03 1.24 1.24 96 1012.6
20260504205629 14 241 0.0 0.0 0.03 1.24 1.24 96 1012.5
20260504205130 14 241 0.0 0.0 0.03 1.24 1.24 96 1012.5
20260504204632 14 241 0.0 0.0 0.03 1.24 1.24 96 1012.7
20260504203630 14 241 0.0 0.0 0.03 1.24 1.24 96 1012.6
20260504203131 14 241 0.0 6.4 0.03 1.24 1.24 96 1012.5
20260504202632 14 241 0.0 6.4 0.03 1.24 1.24 96 1012.5
20260504202132 14 241 0.0 3.2 0.00 1.22 1.22 96 1012.5
20260504201635 14 241 0.0 6.4 0.00 1.22 1.22 96 1012.5
20260504201129 14 241 3.2 8.0 0.00 1.22 1.22 96 1012.6
20260504200627 14 241 3.2 8.0 0.00 1.22 1.22 96 1012.6
20260504200128 14 235 3.2 11.3 0.00 1.22 1.22 96 1012.5
20260504195621 14 203 0.0 11.3 0.00 1.22 1.22 96 1012.6
20260504195122 14 147 0.0 0.0 0.00 1.22 1.22 96 1012.6
20260504194614 14 147 0.0 3.2 0.00 1.22 1.22 96 1012.5
20260504194110 14 147 0.0 3.2 0.00 1.22 1.22 96 1012.5
20260504193103 14 147 0.0 0.0 0.00 1.22 1.22 96 1012.3
20260504192605 14 147 0.0 0.0 0.00 1.22 1.22 95 1012.2
20260504192104 14 147 0.0 0.0 0.03 1.22 1.22 96 1012.3
20260504191554 14 147 0.0 0.0 0.05 1.22 1.22 95 1012.3
20260504191043 14 147 0.0 0.0 0.13 1.22 1.22 95 1012.3
20260504190545 14 147 0.0 0.0 0.18 1.22 1.22 95 1012.3
20260504190044 14 147 0.0 0.0 0.20 1.22 1.22 95 1012.3
20260504185538 14 147 0.0 3.2 0.23 1.22 1.22 95 1012.2
20260504185034 14 147 0.0 3.2 0.25 1.22 1.22 95 1012.2
20260504184533 14 147 0.0 0.0 0.28 1.22 1.22 95 1012.2
20260504182533 14 147 3.2 6.4 0.36 1.22 1.19 94 1012.2
20260504182031 14 147 3.2 6.4 0.38 1.19 1.17 94 1012.3
20260504181536 14 146 0.0 6.4 0.36 1.14 1.14 94 1012.3